Regional Weather Roundup
Issued by NWS

Home | Current Version | Previous Version | Text Only | Print | Product List | Glossary On
Versions: 1 2 3 4 5 6 7 8 9 10 11 12 13 14 15 16 17 18 19 20 21 22 23 24 25 26 27 28 29 30 31 32 33 34 35 36 37 38 39 40 41 42 43 44 45 46 47 48 49 50
000
ASPQ40 PGUM 271612
RWRPQ
WEATHER ROUNDUP FOR THE MARIANAS AND MICRONESIA
NATIONAL WEATHER SERVICE TIYAN GU
200 AM CHST FRI NOV 28 2014

GUZ001>004-271700-
MARIANA ISLANDS-

CITY           SKY/WX    TMP DP  RH WIND       PRES   REMARKS
GUAM AIRPORT   PTCLDY    82  77  83 NE15      29.85F HX  91
ANDERSEN AFB   MOCLDY    81  75  83 NE23G29   29.86S
ROTA AIRPORT   NOT AVBL
TINIAN AP      NOT AVBL
SAIPAN AP      CLOUDY    82  73  74 E18G29    29.89F

$$

PMZ161-271700-
REPUBLIC OF PALAU-

CITY           SKY/WX    TMP DP  RH WIND       PRES   REMARKS
KOROR AP       LGT RAIN  79  77  94 NE21G29   29.78F
KOROR WSO      NOT AVBL

$$

PMZ171>174-271700-
FEDERATED STATES OF MICRONESIA-

CITY           SKY/WX    TMP DP  RH WIND       PRES   REMARKS
YAP AIRPORT    MOCLDY    81  79  94 E7G18     29.76F
CHUUK AP       CLOUDY    81  77  89 NE14      29.74F
POHNPEI AP     NOT AVBL
POHNPEI WSO    LGT RAIN  82  79  89 NE9       29.75F HX  93
KOSRAE AP      NOT AVBL

$$

PMZ181-271700-
REPUBLIC OF THE MARSHALL ISLANDS-

CITY           SKY/WX    TMP DP  RH WIND       PRES   REMARKS
KWAJALEIN AP   DRIZZLE   77  73  88 E17       29.76R
MAJURO AP      NOT AVBL
MAJURO WSO     LGT RAIN  81  75  83 E18       29.75R

$$




USA.gov is the U.S. government's official web portal to all federal, state and local government web resources and services.